Showing default

TJS-10, 58204

Orbit data source: Space-Track

TJS-10, 58204 is a payload satellite owned by PLA SSF (CN) in GEO that was launched on Fri, 03 Nov 2023 UTC via a CHANG ZHENG 7A launch vehicle from the Wenchang Satellite Launch Center (WSC). Payload-class satellites include a variety of spacecraft equipped with specific instruments for various scientific and technological missions. These include communications satellites like Starlink; space stations such as the ISS; scientific satellites like the Hubble; Earth observation satellites from companies like Planet Labs, Umbra, and HawkEye 360; GPS; miniature CubeSats for education and research; and military/defense satellites.

Not visible in the next 10 days
Identifier
58204, 2023-169A
Orbit
GEO
Country
Flag of CNCN / PRC
Related business
Manufacturer
SISE
Mission
Operational Defense Early Warn
Bus & Motor
FY-4?, LAE
Mass
~5,000 kg wet, ~2,500 kg dry
Launch date (UTC)
2023-11-03 (3 years ago)
Launch vehicle
CHANG ZHENG 7A
Launch site
Wenchang Satellite Launch Center (WSC)
Object type
Payload
Rocket body
Debris
Shape & HBR
Box + 2 Pan, 15.0 m
Radar Cross Section
34.063 m², Large (>1 m²)

Expand to show TLE details & history
Last TLE update: 16 hours ago

TLE from 16 hours ago
0 TJS-10
1 58204U 23169A   26145.74462977 -.00000249  00000-0  00000+0 0  9999
2 58204   2.4889  80.7483 0003456 100.8852  62.2244  1.00272409  9312
Epoch: 2026-05-25T17:52Z
TLE epoch observation values (Epoch: 2026-05-25T17:52:16.012Z)
Latitude
0.70446°
Longitude
92.51811°
Altitude
35,779 km
Speed
3.075 km/s
True Right ascension
16h 15m 39s
True Declination
0° 42' 14"
Sunlit
Object was in daylight at epoch
Visualization orbit readout
Latitude
Unknown
Longitude
Unknown
Altitude
Unknown
Speed
Unknown
Apparent Right ascension
Unknown
Apparent Declination
Unknown
Sunlit
N/A
Visualization observer readout
Local Sidereal Time
19:08:01
Azimuth
Unknown
Elevation
Unknown
Doppler factor
Unknown
Orbital elements
Apogee altitude
35,802.06 km
Perigee altitude
35,772.915 km
Semi-major axis
42,165.624 km
Eccentricity
0.00035
Inclination
2.4889°
RAAN
80.7483°
Arg. of periapsis
100.8852°
True anomaly
62.25945°
Mean anomaly
62.2244°
Eccentric anomaly
62.24192°
Mean motion
0.25067 °/min
Orbital period
1,436.14 mins
BSTAR
0
Loading maneuver chart data...
Computing Atmospheric mass density...
Loading historical data...
Loading historical data...
Loading historical data...
Loading historical data...
Loading historical data...
Loading historical data...
Loading historical data...
Other satellites on launch #169 in the year 2023 (2023-11-03 UTC)

Documentation

Showing up to 5 results
|